Location: Newark
(45.9456°N, 15.4064°E)
Time: 15:15:24
(UTC+00:00)

SR - Pass Details

Date: 29 January 2020
Orbit: 575 x 880 km, 66.7° (Epoch: 23 February)

Event Time Altitude Azimuth Distance (km) Brightness Sun altitude
Rises 22:26:38 0° 268° (W) 3,466 - -60.4°
Reaches altitude 10° 22:30:00 10° 287° (WNW) 2,540 - -60.6°
Maximum altitude 22:33:56 18° 329° (NNW) 2,028 - -60.9°
Drops below altitude 10° 22:37:51 10° 11° (N) 2,518 - -61.1°
Sets 22:41:11 0° 30° (NNE) 3,424 - -61.2°
